Regional Weather Roundup
Issued by NWS Lake Charles, LA

Home | Current Version | Previous Version | Text Only | Print | Product List | Glossary On
Versions: 1 2 3 4 5 6 7 8 9 10 11 12 13 14 15 16 17 18 19 20 21 22 23 24 25 26 27
000
ASUS44 KLCH 241310
RWRLCH
REGIONAL WEATHER ROUNDUP
NATIONAL WEATHER SERVICE LAKE CHARLES LA
700 AM CST FRI FEB 24 2017

Note: "fair" indicates few or no clouds below 12,000 feet with no
significant weather and/or obstructions to visibility.


ACROSS SOUTHEAST TEXAS

CITY           SKY/WX    TMP DP  RH WIND       PRES   REMARKS
BEAUMONT       MOCLDY    67  63  87 SW3       29.76R
BEAUMONT CITY  CLOUDY    66  64  91 CALM      29.76R
ORANGE         CLOUDY    67  64  89 SW6       29.78R
JASPER         PTCLDY    63  61  93 CALM      29.78R
$$

ACROSS CENTRAL LOUISIANA

CITY           SKY/WX    TMP DP  RH WIND       PRES   REMARKS
LEESVILLE      CLOUDY    64  61  88 S7        29.75R
FULLERTON      CLOUDY    65  60  84 VRB3      29.74R
ALEXANDRIA INT CLOUDY    64  60  87 S9        29.75R
ESLER FIELD    CLOUDY    64  61  90 SW8       29.77R
DERIDDER       CLOUDY    64  63  96 S3        29.78R
OAKDALE        CLOUDY    62  61  97 CALM      29.77R
OPELOUSAS      CLOUDY    62  61  97 MISG      29.75S
$$

ACROSS SOUTHWEST AND SOUTH CENTRAL LOUISIANA

CITY           SKY/WX    TMP DP  RH WIND       PRES   REMARKS
SULPHUR        CLOUDY    67  64  91 S6        29.77R
LAKE CHARLES   CLOUDY    66  63  90 SW5       29.76R
CHENNAULT INT  MOCLDY    64  63  94 CALM      29.77R
CAMERON PHI    PTSUNNY   68  66  94 S12       29.72R
DEQUINCY       CLOUDY    65  62  91 CALM      29.77R
JENNINGS       CLOUDY    64  62  92 S9        29.74S
LAFAYETTE      MOCLDY    65  63  93 S3        29.76R
NEW IBERIA     MOCLDY    62  60  93 SE7       29.77R FOG
ABBEVILLE      CLOUDY    64  64 100 S8        29.76R
PATTERSON      MOCLDY    60  60 100 SE3       29.79R FOG
SALT POINT       N/A     64  63  96 SE3       29.77R
$$

SELECTED SITES ACROSS THE REGION

CITY           SKY/WX    TMP DP  RH WIND       PRES   REMARKS
HOUSTON BUSH   MOCLDY    63  61  93 CALM      29.73R
HOUSTON HOBBY  MOCLDY    65  63  93 CALM      29.72R
GALVESTON      CLOUDY    69  66  90 W6        29.74R
COLLEGE STAT   CLEAR     62  60  93 S6        29.69R
CONROE         CLOUDY    61  60  97 E3        29.74R
HUNTSVILLE     CLEAR     63  60  90 S6        29.70R
LUFKIN         FOG       57  56  96 SE3       29.71R VSB 1/2
SHREVEPORT     CLEAR     60  58  92 S14       29.67F
MONROE         MOCLDY    61  58  90 S7        29.75R
NATCHEZ MS     CLOUDY    63  57  82 S16       29.75S
BATON ROUGE    FOG       62  62 100 SE5       29.77S VSB 1/4
N.O. INTL ARPT MOCLDY    63  63 100 SE6       29.79R
SLIDELL        FOG       55  55 100 N6        29.80R VSB<1/4
$$

MARINE REPORTS

STATION/POSITION TIME  SKY/WX   TEMP    WIND        PRES    VSBY
                                AIR SEA DIR/SP/G
                 (UTC)          (F)     (DEG/KT/KT) (MB)    (MI)
BUOY 30 S HIGH I 1150            67 65  180/ 12/ 12 1005.1
WVE H/P(F/S)=  4/ 6

SEA RIM ST PARK  1200            66     170/ 12/ 14 1006.2R
PORT ARTHUR      1248               66  220/  7/ 12 1007.8R
SABINE PASS N    1248            67 69  200/  4/ 11 1008.6R
TEXAS POINT      NOT AVBL
CALCASIEU PASS   1248            67 67  190/ 14/ 18   N/A
LK CHARLES BEACH 1248            66 68              1008.4R
MARSH ISLAND     1200            69                   N/A
FRESH WATER LOCK 1248            67 67  150/  9/ 12 1008.2R
AMERADA PASS     1248            64 60  150/  3/  5 1008.2R
$$




USA.gov is the U.S. government's official web portal to all federal, state and local government web resources and services.